Location: Dammartin
(48.9032°N, 1.6195°E)
Time: 21:26:54
(UTC+00:00)

YUBILEINY - Pass Details

Date: 07 December 2023
Orbit: 1479 x 1508 km, 82.5° (Epoch: 04 March)

Event Time Altitude Azimuth Distance (km) Brightness Sun altitude
Rises 17:49:25 0° 351° (N) 4,632 ? -17.6°
Reaches altitude 10° 17:53:20 10° 7° (N) 3,644 ? -18.2°
Enters shadow 17:58:57 21° 47° (NE) 2,838 ? -19.1°
